Forside
METAR-TAF:

METAR-TAF

Lufthavne :

Coonabarabran, Australien

Breddekreds: 31-20S, længdekreds: 149-16E, højde: 645 m

Aktuelle vejr

Denne rapport blev lavet for 46 minutter siden, kl. 01:09 UTC
Vind 17 kt fra østsydøst med vindstød på up til 27 kt
Temperatur 22°C
Fugtighed 43%
Tryk 1026 hPa
Sigt 10 km eller mere
Spredte skyer i en højde af 4000 ft

METAR: YCBB 240109Z AUTO 11017G27KT 9999 // SCT040 22/09 Q1026

Tid: 12:55 (01:55 UTC)


TAF: fraværende

Vejrobservationer og prognoser fra mere end 4000 lufthavne (METAR og TAF).

De gule og røde prikker repræsenterer de meteorologiske stationer.

Flyt musen over at se navnet på stationen.

Så klik over at se vejr observationer og prognoser.

At skifte det kort: Klik på de grønne knapper med et sort kors for at zoome ind; på den grønne knap med en bindestreg for at zoome ud; eller på de grønne pile for tilstødende kort.


METAR-TAF: